Showing default

KINEIS-5A, 62084

Orbit data source: Space-Track

KINEIS-5A, 62084 is a French payload satellite in SSO that was launched on Mon, 25 Nov 2024 UTC via an ELECTRON launch vehicle from the Rocket Lab Launch Complex (RLLC). Payload-class satellites include a variety of spacecraft equipped with specific instruments for various scientific and technological missions. These include communications satellites like Starlink; space stations such as the ISS; scientific satellites like the Hubble; Earth observation satellites from companies like Planet Labs, Umbra, and HawkEye 360; GPS; miniature CubeSats for education and research; and military/defense satellites.

Loading next visibility...
Identifier
62084, 2024-219D
Orbit
SSO
Country
Flag of FRFR
Related business
Manufacturer
KINEIS
Mission
Operational Commercial Communications
Bus & Motor
CUBESAT 16U, Unknown motor
Mass
28 kg wet, 28 kg dry
Launch date (UTC)
2024-11-25 (1 year ago)
Launch vehicle
ELECTRON
Launch site
Rocket Lab Launch Complex (RLLC)
Object type
Payload
Rocket body
Debris
Shape & HBR
Box + 2 Pan + 1 Ant, 1.0 m
Radar Cross Section
0.229 m², Medium (>0.1 m² and < 1m²)

Expand to show TLE details & history
Last TLE update: 7 hours ago

TLE from 7 hours ago
0 KINEIS-5A
1 62084U 24219D   26038.33585308  .00001219  00000-0  20002-3 0  9992
2 62084  97.9877 200.6064 0002773  27.1834 332.9518 14.72442422 64666
Epoch: 2026-02-07T08:03Z
TLE epoch observation values (Epoch: 2026-02-07T08:03:37.706Z)
Latitude
-0.00002°
Longitude
-57.76155°
Altitude
654.553 km
Speed
7.531 km/s
True Right ascension
13h 22m 25s
True Declination
0° 00' 00"
Sunlit
Object was in full shadow at epoch
Visualization orbit readout
Latitude
Unknown
Longitude
Unknown
Altitude
Unknown
Speed
Unknown
Apparent Right ascension
Unknown
Apparent Declination
Unknown
Sunlit
N/A
Visualization observer readout
Local Sidereal Time
16:50:02
Azimuth
Unknown
Elevation
Unknown
Doppler factor
Unknown
Orbital elements
Apogee altitude
652.286 km
Perigee altitude
648.388 km
Semi-major axis
7,028.474 km
Eccentricity
0.00028
Inclination
97.9877°
RAAN
200.6064°
Arg. of periapsis
27.1834°
True anomaly
332.93735°
Mean anomaly
332.9518°
Eccentric anomaly
332.94457°
Mean motion
3.68342 °/min
Orbital period
97.74 mins
BSTAR
0.00020002
Loading maneuver chart data...
Computing Atmospheric mass density...
Loading historical data...
Loading historical data...
Loading historical data...
Loading historical data...
Loading historical data...
Loading historical data...
Loading historical data...

Documentation

Showing up to 5 results
|